• In Netherlands
  • List of Countries
  • For 7 days
  • Water Temperature
  • Satellite Maps
  • Weather Map
  • Weather Widgets
  • user-avatar
    Login

    Hourly Weather Balchik

    Today, 28 March, Tuesday

    Time Temperature Precipitation Wind Pressure Humidity
    00:00 +3°C° 0 mm 3 mps 744 mmHg 70%
    01:00 +3°C° 0 mm 4 mps 744 mmHg 70%
    02:00 +3°C° 0 mm 4 mps 744 mmHg 70%
    03:00 +3°C° 0 mm 4 mps 744 mmHg 70%
    04:00 +1°C° 0 mm 4 mps 744 mmHg 71%
    05:00 +1°C° 0 mm 4 mps 744 mmHg 72%
    06:00 +3°C° 0 mm 3 mps 744 mmHg 69%
    07:00 +4°C° 0 mm 3 mps 744 mmHg 67%
    08:00 +7°C° 0 mm 3 mps 744 mmHg 65%
    09:00 +9°C° 0 mm 3 mps 744 mmHg 60%
    10:00 +11°C° 0 mm 3 mps 744 mmHg 55%
    11:00 +12°C° 0 mm 3 mps 744 mmHg 51%
    12:00 +13°C° 0 mm 3 mps 744 mmHg 49%
    13:00 +14°C° 0 mm 3 mps 744 mmHg 47%
    14:00 +15°C° 0 mm 4 mps 743 mmHg 44%
    15:00 +14°C° 0 mm 3 mps 743 mmHg 47%
    16:00 +14°C° 0 mm 3 mps 743 mmHg 49%
    17:00 +14°C° 0 mm 3 mps 742 mmHg 51%
    18:00 +12°C° 0 mm 3 mps 742 mmHg 56%
    19:00 +10°C° 0 mm 3 mps 742 mmHg 61%
    20:00 +8°C° 0 mm 2 mps 743 mmHg 66%
    21:00 +8°C° 0 mm 2 mps 743 mmHg 66%
    22:00 +8°C° 0 mm 2 mps 743 mmHg 66%
    23:00 +8°C° 0 mm 2 mps 743 mmHg 66%

    Tomorrow, 29 March, Wednesday

    Time Temperature Precipitation Wind Pressure Humidity
    00:00 +7°C° 0 mm 2 mps 743 mmHg 67%
    01:00 +7°C° 0 mm 2 mps 744 mmHg 68%
    02:00 +7°C° 0 mm 2 mps 744 mmHg 69%
    03:00 +7°C° 0 mm 2 mps 744 mmHg 72%
    04:00 +6°C° 0 mm 2 mps 744 mmHg 74%
    05:00 +6°C° 0 mm 2 mps 744 mmHg 77%
    06:00 +7°C° 0 mm 2 mps 744 mmHg 74%
    07:00 +9°C° 0 mm 2 mps 745 mmHg 71%
    08:00 +10°C° 0 mm 2 mps 745 mmHg 69%
    09:00 +13°C° 0 mm 2 mps 745 mmHg 65%
    10:00 +14°C° 0 mm 2 mps 746 mmHg 61%
    11:00 +16°C° 0 mm 3 mps 746 mmHg 57%
    12:00 +16°C° 0 mm 3 mps 745 mmHg 55%
    13:00 +17°C° 0 mm 3 mps 745 mmHg 54%
    14:00 +17°C° 0 mm 3 mps 745 mmHg 53%
    15:00 +16°C° 0 mm 3 mps 744 mmHg 56%
    16:00 +16°C° 0 mm 3 mps 744 mmHg 59%
    17:00 +14°C° 0 mm 3 mps 744 mmHg 63%
    18:00 +13°C° 0 mm 2 mps 744 mmHg 70%
    19:00 +10°C° 0 mm 2 mps 744 mmHg 77%
    20:00 +8°C° 0 mm 2 mps 744 mmHg 84%
    21:00 +8°C° 0 mm 2 mps 743 mmHg 84%
    22:00 +7°C° 0 mm 2 mps 743 mmHg 85%
    23:00 +7°C° 0 mm 2 mps 743 mmHg 85%

    Day after tomorrow, 30 March, Thursday

    Time Temperature Precipitation Wind Pressure Humidity
    00:00 +7°C° 0 mm 2 mps 743 mmHg 85%
    01:00 +7°C° 0 mm 2 mps 743 mmHg 85%
    02:00 +7°C° 0 mm 2 mps 742 mmHg 84%
    03:00 +7°C° 0 mm 2 mps 742 mmHg 84%
    04:00 +7°C° 0 mm 2 mps 742 mmHg 84%
    05:00 +7°C° 0 mm 2 mps 742 mmHg 84%
    06:00 +8°C° 0 mm 2 mps 742 mmHg 78%
    07:00 +10°C° 0 mm 2 mps 742 mmHg 73%
    08:00 +12°C° 0 mm 3 mps 742 mmHg 67%
    09:00 +13°C° 0 mm 3 mps 743 mmHg 61%
    10:00 +16°C° 0 mm 3 mps 743 mmHg 56%
    11:00 +18°C° 0 mm 3 mps 743 mmHg 50%
    12:00 +18°C° 0 mm 3 mps 743 mmHg 50%
    13:00 +18°C° 0 mm 3 mps 743 mmHg 49%
    14:00 +19°C° 0 mm 3 mps 743 mmHg 48%
    15:00 +18°C° 0.1 mm 3 mps 743 mmHg 52%
    16:00 +17°C° 0.1 mm 4 mps 743 mmHg 56%
    17:00 +15°C° 0.1 mm 4 mps 743 mmHg 60%
    18:00 +14°C° 0.1 mm 3 mps 743 mmHg 66%
    19:00 +13°C° 0.1 mm 2 mps 744 mmHg 73%
    20:00 +10°C° 0.1 mm 2 mps 744 mmHg 79%
    21:00 +10°C° 0 mm 2 mps 745 mmHg 77%
    22:00 +11°C° 0 mm 3 mps 745 mmHg 74%
    23:00 +11°C° 0 mm 4 mps 745 mmHg 72%

    31 March, Friday

    Time Temperature Precipitation Wind Pressure Humidity
    00:00 +10°C° 0 mm 4 mps 746 mmHg 72%
    01:00 +10°C° 0 mm 4 mps 746 mmHg 72%
    02:00 +10°C° 0 mm 4 mps 746 mmHg 73%
    03:00 +8°C° 0 mm 5 mps 746 mmHg 77%
    04:00 +7°C° 0 mm 5 mps 747 mmHg 80%
    05:00 +6°C° 0 mm 5 mps 747 mmHg 84%
    06:00 +6°C° 0 mm 5 mps 747 mmHg 82%
    07:00 +7°C° 0 mm 6 mps 748 mmHg 80%
    08:00 +7°C° 0 mm 6 mps 748 mmHg 77%
    09:00 +8°C° 0 mm 6 mps 749 mmHg 71%
    10:00 +9°C° 0 mm 6 mps 749 mmHg 65%
    11:00 +10°C° 0 mm 5 mps 749 mmHg 58%
    12:00 +10°C° 0 mm 5 mps 749 mmHg 55%
    13:00 +10°C° 0 mm 5 mps 749 mmHg 52%
    14:00 +12°C° 0 mm 5 mps 749 mmHg 49%
    15:00 +10°C° 0 mm 5 mps 748 mmHg 52%
    16:00 +9°C° 0 mm 5 mps 748 mmHg 55%
    17:00 +9°C° 0 mm 5 mps 748 mmHg 58%
    18:00 +7°C° 0 mm 4 mps 747 mmHg 65%
    19:00 +5°C° 0 mm 4 mps 747 mmHg 73%
    20:00 +3°C° 0 mm 3 mps 747 mmHg 80%
    21:00 +3°C° 0 mm 3 mps 747 mmHg 83%
    22:00 +3°C° 0 mm 2 mps 747 mmHg 85%
    23:00 +3°C° 0 mm 2 mps 747 mmHg 87%

    1 April, Saturday

    Time Temperature Precipitation Wind Pressure Humidity
    00:00 +2°C° 0 mm 2 mps 747 mmHg 88%
    01:00 +3°C° 0 mm 1 mps 746 mmHg 89%
    02:00 +2°C° 0 mm 1 mps 746 mmHg 89%
    03:00 +2°C° 0 mm 1 mps 746 mmHg 89%
    04:00 +1°C° 0 mm 1 mps 745 mmHg 89%
    05:00 +1°C° 0 mm 1 mps 745 mmHg 89%
    06:00 +3°C° 0 mm 1 mps 745 mmHg 82%
    07:00 +5°C° 0 mm 1 mps 745 mmHg 74%
    08:00 +6°C° 0 mm 1 mps 746 mmHg 66%
    09:00 +7°C° 0 mm 2 mps 746 mmHg 59%
    10:00 +9°C° 0 mm 2 mps 746 mmHg 52%
    11:00 +10°C° 0 mm 2 mps 746 mmHg 46%
    12:00 +12°C° 0 mm 2 mps 746 mmHg 45%
    13:00 +13°C° 0 mm 2 mps 745 mmHg 44%
    14:00 +14°C° 0 mm 2 mps 745 mmHg 43%
    15:00 +12°C° 0 mm 3 mps 745 mmHg 47%
    16:00 +12°C° 0 mm 3 mps 744 mmHg 51%
    17:00 +11°C° 0 mm 3 mps 744 mmHg 54%
    18:00 +9°C° 0 mm 3 mps 744 mmHg 64%
    19:00 +7°C° 0 mm 2 mps 744 mmHg 73%
    20:00 +5°C° 0 mm 2 mps 744 mmHg 83%
    21:00 +4°C° 0 mm 2 mps 744 mmHg 83%
    22:00 +4°C° 0 mm 2 mps 744 mmHg 84%
    23:00 +3°C° 0 mm 2 mps 744 mmHg 85%

    2 April, Sunday

    Time Temperature Precipitation Wind Pressure Humidity
    00:00 +4°C° 0 mm 1 mps 744 mmHg 84%
    01:00 +3°C° 0 mm 1 mps 744 mmHg 83%
    02:00 +3°C° 0 mm 1 mps 743 mmHg 83%
    03:00 +3°C° 0 mm 1 mps 743 mmHg 81%
    04:00 +3°C° 0 mm 1 mps 743 mmHg 79%
    05:00 +2°C° 0 mm 1 mps 743 mmHg 78%
    06:00 +4°C° 0 mm 1 mps 744 mmHg 70%
    07:00 +6°C° 0 mm 1 mps 744 mmHg 63%
    08:00 +9°C° 0 mm 1 mps 745 mmHg 55%
    09:00 +9°C° 0 mm 2 mps 745 mmHg 49%
    10:00 +12°C° 0 mm 2 mps 745 mmHg 42%
    11:00 +14°C° 0 mm 2 mps 745 mmHg 36%
    12:00 +15°C° 0 mm 2 mps 745 mmHg 35%
    13:00 +16°C° 0 mm 2 mps 745 mmHg 35%
    14:00 +16°C° 0 mm 2 mps 745 mmHg 35%
    15:00 +16°C° 0 mm 3 mps 745 mmHg 39%
    16:00 +14°C° 0 mm 3 mps 745 mmHg 43%
    17:00 +13°C° 0 mm 3 mps 744 mmHg 47%
    18:00 +11°C° 0 mm 3 mps 744 mmHg 52%
    19:00 +9°C° 0 mm 2 mps 744 mmHg 58%
    20:00 +6°C° 0 mm 2 mps 744 mmHg 63%
    21:00 +6°C° 0 mm 2 mps 744 mmHg 63%
    22:00 +5°C° 0 mm 2 mps 744 mmHg 64%
    23:00 +5°C° 0 mm 2 mps 744 mmHg 64%
    Show more